This demonstration page uses our WeatherBlox Daily Observations layout. Learn more.

Left ArrowRight Arrow

Hourly Observations for September 25, 2019

Temp ( °F °C ) Dew Point ( °F °C ) Humidity (%) Winds ( mph kmh ) Pressure ( in mb ) Visibility ( mi km ) Precip ( " mm )
12:53 am 00:53 Clear 61 16.1 54 12.2 78 78 E 5 7 29.79 1009 10 16 0.00 0.00
1:53 am 01:53 Clear 62 16.7 54 12.2 75 75 E 5 7 29.78 1009 10 16 0.00 0.00
2:53 am 02:53 Clear 57 13.9 52 11.1 83 83 NE 5 7 29.80 1009 10 16 0.00 0.00
3:53 am 03:53 Clear 56 13.3 52 11.1 87 87 W 3 6 29.82 1010 10 16 0.00 0.00
4:53 am 04:53 Clear 55 12.8 51 10.6 87 87 NW 5 7 29.83 1010 10 16 0.00 0.00
5:53 am 05:53 Clear 56 13.3 52 11.1 87 87 N 9 15 29.87 1012 10 16 0.00 0.00
6:53 am 06:53 Clear 55 12.8 51 10.6 87 87 N 5 7 29.88 1012 10 16 0.00 0.00
7:53 am 07:53 Sunny 57 13.9 51 10.6 81 81 N 3 6 29.89 1012 10 16 0.00 0.00
8:53 am 08:53 Sunny 63 17.2 53 11.7 70 70 N 6 9 29.91 1013 10 16 0.00 0.00
9:53 am 09:53 Sunny 67 19.4 50 10 55 55 NNE 10 17 29.93 1014 10 16 0.00 0.00
10:53 am 10:53 Sunny 71 21.7 47 8.3 42 42 NE 8 13 29.94 1014 10 16 0.00 0.00
11:53 am 11:53 Sunny 75 23.9 42 5.6 31 31 NNE 9 15 29.94 1014 10 16 0.00 0.00
12:53 pm 12:53 Partly Cloudy 76 24.4 42 5.6 30 30 NE 5 7 29.94 1014 10 16 0.00 0.00
1:53 pm 13:53 Sunny 77 25 44 6.7 31 31 NNE 12 19 29.92 1013 10 16 0.00 0.00
2:53 pm 14:53 Sunny 77 25 44 6.7 31 31 NNE 14 22 29.93 1014 10 16 0.00 0.00
3:53 pm 15:53 Sunny 76 24.4 43 6.1 31 31 NNE 12 19 29.93 1014 10 16 0.00 0.00
4:53 pm 16:53 Sunny 73 22.8 41 5 32 32 NE 12 19 29.94 1014 10 16 0.00 0.00
5:53 pm 17:53 Sunny 69 20.6 43 6.1 39 39 NNE 13 20 29.97 1015 10 16 0.00 0.00
6:53 pm 18:53 Sunny 66 18.9 42 5.6 42 42 NNE 12 19 30.00 1016 10 16 0.00 0.00
7:53 pm 19:53 Clear 61 16.1 43 6.1 52 52 NNE 8 13 30.02 1017 10 16 0.00 0.00
8:53 pm 20:53 Clear 56 13.3 44 6.7 65 65 NNE 7 11 30.05 1018 10 16 0.00 0.00
9:53 pm 21:53 Clear 56 13.3 44 6.7 65 65 NNE 6 9 30.07 1018 10 16 0.00 0.00
10:53 pm 22:53 Clear 54 12.2 44 6.7 69 69 NE 6 9 30.08 1019 10 16 0.00 0.00
11:53 pm 23:53 Clear 52 11.1 44 6.7 75 75 NNE 5 7 30.06 1018 10 16 0.00 0.00

Powered by AerisWeather